EJU18TV LEMG-LSGG

Flight info

Callsign EJU18TV
Flight time 2h 3m
Altitude 30000
Route BLN L27 YAKXU N871 TOPTU DCT TOU DCT GAI DCT MEN DCT NINUN DCT LATAM DCT ETREK DCT LUXAN G53 LTP Z16 BELUS
Aircraft A319/M-SDE3FGHIRWY/LB1

Departure

Time 2026-05-06 04:19
Airport Málaga-Costa del Sol Airport (LEMG)

Arrival

Time 2026-05-06 06:22
Airport Geneva International Airport (LSGG)
Time Latitude Longitude Altitude Speed Heading
2026-05-06 04:05 36.67466 -4.49367 42 ft 0 kts 89°
2026-05-06 04:11 36.67466 -4.49370 42 ft 3 kts 89°
2026-05-06 04:11 36.67468 -4.49403 42 ft 4 kts 101°
2026-05-06 04:12 36.67475 -4.49436 42 ft 4 kts 112°
2026-05-06 04:12 36.67487 -4.49465 39 ft 4 kts 125°
2026-05-06 04:12 36.67500 -4.49486 40 ft 4 kts 130°
2026-05-06 04:12 36.67518 -4.49511 39 ft 4 kts 131°
2026-05-06 04:13 36.67528 -4.49525 41 ft 0 kts 131°
2026-05-06 04:14 36.67522 -4.49518 39 ft 4 kts 135°
2026-05-06 04:14 36.67498 -4.49488 41 ft 6 kts 132°
2026-05-06 04:15 36.67455 -4.49479 42 ft 7 kts 198°
2026-05-06 04:15 36.67403 -4.49482 43 ft 9 kts 152°
2026-05-06 04:15 36.67345 -4.49408 43 ft 13 kts 135°
2026-05-06 04:15 36.67283 -4.49321 42 ft 14 kts 130°
2026-05-06 04:16 36.67218 -4.49231 42 ft 14 kts 130°
2026-05-06 04:16 36.67150 -4.49136 42 ft 15 kts 131°
2026-05-06 04:16 36.67081 -4.49037 42 ft 15 kts 131°
2026-05-06 04:16 36.67011 -4.48940 42 ft 15 kts 131°
2026-05-06 04:17 36.66938 -4.48839 39 ft 17 kts 132°
2026-05-06 04:17 36.66851 -4.48718 36 ft 19 kts 132°
2026-05-06 04:17 36.66760 -4.48592 35 ft 20 kts 131°
2026-05-06 04:17 36.66663 -4.48487 35 ft 17 kts 176°
2026-05-06 04:18 36.66575 -4.48559 39 ft 14 kts 224°
2026-05-06 04:18 36.66590 -4.48648 40 ft 12 kts 310°
2026-05-06 04:18 36.66652 -4.48734 40 ft 20 kts 312°
2026-05-06 04:18 36.66925 -4.49116 46 ft 96 kts 312°
2026-05-06 04:19 36.67506 -4.49935 65 ft 152 kts 310°
2026-05-06 04:19 36.68208 -4.50928 670 ft 153 kts 308°
2026-05-06 04:19 36.68905 -4.51946 1310 ft 160 kts 311°
2026-05-06 04:19 36.69652 -4.53075 1741 ft 177 kts 310°
2026-05-06 04:20 36.70484 -4.54354 2069 ft 204 kts 311°
2026-05-06 04:20 36.71411 -4.55780 2731 ft 214 kts 311°
2026-05-06 04:20 36.72592 -4.56995 3269 ft 232 kts 338°
2026-05-06 04:20 36.74238 -4.57325 3762 ft 254 kts
2026-05-06 04:21 36.75933 -4.56561 4486 ft 267 kts 28°
2026-05-06 04:21 36.77569 -4.55407 5416 ft 273 kts 26°
2026-05-06 04:21 36.79258 -4.54270 6324 ft 279 kts 26°
2026-05-06 04:21 36.80987 -4.53139 7233 ft 282 kts 25°
2026-05-06 04:22 36.82744 -4.52026 8179 ft 285 kts 24°
2026-05-06 04:22 36.84520 -4.50891 9093 ft 289 kts 24°
2026-05-06 04:22 36.86325 -4.49713 9936 ft 296 kts 25°
2026-05-06 04:23 36.90187 -4.47143 10833 ft 333 kts 25°
2026-05-06 04:23 36.92256 -4.45756 11581 ft 339 kts 25°
2026-05-06 04:23 36.94349 -4.44354 12359 ft 344 kts 25°
2026-05-06 04:23 36.96477 -4.42934 13135 ft 350 kts 25°
2026-05-06 04:24 36.98645 -4.41490 13865 ft 355 kts 25°
2026-05-06 04:24 37.00835 -4.40031 14553 ft 359 kts 25°
2026-05-06 04:24 37.03044 -4.38555 15240 ft 362 kts 25°
2026-05-06 04:24 37.05277 -4.37064 15940 ft 366 kts 25°
2026-05-06 04:25 37.07535 -4.35559 16628 ft 369 kts 25°
2026-05-06 04:25 37.09816 -4.34039 17302 ft 373 kts 25°
2026-05-06 04:25 37.12092 -4.32520 17972 ft 377 kts 25°
2026-05-06 04:25 37.14447 -4.30947 18592 ft 381 kts 25°
2026-05-06 04:26 37.16762 -4.29399 19175 ft 385 kts 25°
2026-05-06 04:26 37.19135 -4.27813 19732 ft 389 kts 25°
2026-05-06 04:26 37.21536 -4.26207 20288 ft 393 kts 25°
2026-05-06 04:26 37.23959 -4.24582 20833 ft 398 kts 25°
2026-05-06 04:27 37.26417 -4.22932 21391 ft 402 kts 25°
2026-05-06 04:27 37.28895 -4.21271 21939 ft 406 kts 24°
2026-05-06 04:27 37.31399 -4.19589 22485 ft 410 kts 24°
2026-05-06 04:27 37.33933 -4.17883 23021 ft 415 kts 24°
2026-05-06 04:28 37.36495 -4.16160 23554 ft 419 kts 24°
2026-05-06 04:28 37.39083 -4.14420 23996 ft 423 kts 24°
2026-05-06 04:28 37.41682 -4.12666 24465 ft 426 kts 24°
2026-05-06 04:28 37.44310 -4.10890 24928 ft 429 kts 24°
2026-05-06 04:29 37.46946 -4.09108 25369 ft 432 kts 24°
2026-05-06 04:29 37.49605 -4.07311 25807 ft 435 kts 24°
2026-05-06 04:29 37.52282 -4.05500 26238 ft 438 kts 23°
2026-05-06 04:29 37.54978 -4.03678 26665 ft 441 kts 23°
2026-05-06 04:30 37.57687 -4.01841 27077 ft 444 kts 23°
2026-05-06 04:30 37.60419 -3.99989 27468 ft 447 kts 23°
2026-05-06 04:30 37.63169 -3.98124 27868 ft 450 kts 23°
2026-05-06 04:30 37.65937 -3.96248 28287 ft 453 kts 22°
2026-05-06 04:31 37.68727 -3.94358 28652 ft 456 kts 22°
2026-05-06 04:31 37.71531 -3.92451 29065 ft 460 kts 22°
2026-05-06 04:31 37.74318 -3.90551 29454 ft 463 kts 22°
2026-05-06 04:31 37.77155 -3.88612 29824 ft 465 kts 22°
2026-05-06 04:32 37.80007 -3.86665 29956 ft 462 kts 22°
2026-05-06 04:32 37.82780 -3.84760 29968 ft 445 kts 22°
2026-05-06 04:32 37.85460 -3.82914 29962 ft 435 kts 22°
2026-05-06 04:33 37.90742 -3.79299 29973 ft 430 kts 22°
2026-05-06 04:33 37.96003 -3.75713 29963 ft 430 kts 22°
2026-05-06 04:34 38.01264 -3.72111 29967 ft 430 kts 22°
2026-05-06 04:34 38.06519 -3.68496 29967 ft 430 kts 22°
2026-05-06 04:35 38.11784 -3.64868 29964 ft 430 kts 22°
2026-05-06 04:35 38.17125 -3.61587 29983 ft 422 kts 13°
2026-05-06 04:36 38.22604 -3.59011 29976 ft 422 kts 13°
2026-05-06 04:36 38.28108 -3.56421 29971 ft 422 kts 13°
2026-05-06 04:37 38.33621 -3.53825 29964 ft 422 kts 13°
2026-05-06 04:37 38.39132 -3.51220 29962 ft 422 kts 13°
2026-05-06 04:38 38.44643 -3.48603 29969 ft 422 kts 13°
2026-05-06 04:38 38.50124 -3.46007 29964 ft 422 kts 13°
2026-05-06 04:39 38.55632 -3.43394 29966 ft 422 kts 13°
2026-05-06 04:39 38.61131 -3.40775 29990 ft 422 kts 13°
2026-05-06 04:40 38.66637 -3.38145 29970 ft 423 kts 13°
2026-05-06 04:40 38.72153 -3.35513 29964 ft 423 kts 13°
2026-05-06 04:41 38.77668 -3.32873 29963 ft 423 kts 13°
2026-05-06 04:41 38.83186 -3.30229 29961 ft 423 kts 13°
2026-05-06 04:42 38.88704 -3.27584 29981 ft 424 kts 13°
2026-05-06 04:42 38.94233 -3.24932 29955 ft 424 kts 13°
2026-05-06 04:43 38.99767 -3.22268 29969 ft 424 kts 13°
2026-05-06 04:43 39.05292 -3.19596 29969 ft 425 kts 13°
2026-05-06 04:44 39.10829 -3.16911 29986 ft 424 kts 13°
2026-05-06 04:44 39.16353 -3.14234 29978 ft 424 kts 13°
2026-05-06 04:45 39.21844 -3.11577 29979 ft 424 kts 13°
2026-05-06 04:45 39.27367 -3.08900 29969 ft 424 kts 13°
2026-05-06 04:46 39.32889 -3.06208 30011 ft 424 kts 14°
2026-05-06 04:46 39.38403 -3.03520 29997 ft 424 kts 14°
2026-05-06 04:47 39.43917 -3.00827 29994 ft 423 kts 14°
2026-05-06 04:47 39.49426 -2.98114 29988 ft 423 kts 14°
2026-05-06 04:48 39.54935 -2.95399 30006 ft 423 kts 14°
2026-05-06 04:48 39.60437 -2.92683 29997 ft 423 kts 14°
2026-05-06 04:49 39.65908 -2.89984 29995 ft 423 kts 14°
2026-05-06 04:49 39.71413 -2.87273 29990 ft 423 kts 14°
2026-05-06 04:50 39.76917 -2.84563 29988 ft 423 kts 14°
2026-05-06 04:50 39.82421 -2.81844 30006 ft 423 kts 14°
2026-05-06 04:51 39.87935 -2.79115 29983 ft 423 kts 14°
2026-05-06 04:51 39.93433 -2.76380 29990 ft 423 kts 14°
2026-05-06 04:52 39.98934 -2.73629 29987 ft 423 kts 14°
2026-05-06 04:52 40.04438 -2.70886 30001 ft 423 kts 14°
2026-05-06 04:53 40.09947 -2.68141 29997 ft 424 kts 14°
2026-05-06 04:53 40.15415 -2.65405 29984 ft 424 kts 14°
2026-05-06 04:54 40.20929 -2.62643 29985 ft 424 kts 14°
2026-05-06 04:54 40.26452 -2.59883 30020 ft 424 kts 13°
2026-05-06 04:55 40.31962 -2.57113 30018 ft 425 kts 14°
2026-05-06 04:55 40.37470 -2.54288 30015 ft 427 kts 18°
2026-05-06 04:56 40.42818 -2.50802 30009 ft 429 kts 20°
2026-05-06 04:56 40.48162 -2.47294 30027 ft 429 kts 19°
2026-05-06 04:57 40.53508 -2.43798 30029 ft 429 kts 19°
2026-05-06 04:57 40.58852 -2.40296 30023 ft 429 kts 19°
2026-05-06 04:58 40.64153 -2.36813 30019 ft 429 kts 19°
2026-05-06 04:58 40.69491 -2.33302 30018 ft 429 kts 19°
2026-05-06 04:59 40.74829 -2.29783 30018 ft 429 kts 20°
2026-05-06 04:59 40.80155 -2.26255 30012 ft 429 kts 20°
2026-05-06 05:00 40.84595 -2.23314 30009 ft 430 kts 20°
2026-05-06 05:00 40.89944 -2.19768 30066 ft 430 kts 20°
2026-05-06 05:01 40.95300 -2.16209 30043 ft 431 kts 20°
2026-05-06 05:01 41.00652 -2.12645 30029 ft 431 kts 20°
2026-05-06 05:02 41.06013 -2.09066 30029 ft 431 kts 20°
2026-05-06 05:02 41.11231 -2.05045 30018 ft 436 kts 26°
2026-05-06 05:03 41.16358 -2.00762 30043 ft 436 kts 26°
2026-05-06 05:03 41.21487 -1.96475 30036 ft 435 kts 26°
2026-05-06 05:04 41.26611 -1.92188 30032 ft 435 kts 26°
2026-05-06 05:04 41.31698 -1.87921 30016 ft 435 kts 26°
2026-05-06 05:05 41.36823 -1.83613 30056 ft 436 kts 26°
2026-05-06 05:05 41.41948 -1.79295 30040 ft 436 kts 26°
2026-05-06 05:06 41.47058 -1.74973 30033 ft 436 kts 26°
2026-05-06 05:06 41.52175 -1.70649 30023 ft 435 kts 26°
2026-05-06 05:07 41.57286 -1.66321 30040 ft 435 kts 26°
2026-05-06 05:07 41.62394 -1.61977 30033 ft 435 kts 26°
2026-05-06 05:08 41.67497 -1.57640 30026 ft 434 kts 26°
2026-05-06 05:08 41.72601 -1.53297 30024 ft 434 kts 26°
2026-05-06 05:09 41.77699 -1.48943 30037 ft 435 kts 26°
2026-05-06 05:09 41.82790 -1.44584 30024 ft 435 kts 26°
2026-05-06 05:10 41.87854 -1.40245 30013 ft 435 kts 26°
2026-05-06 05:10 41.92943 -1.35867 30006 ft 434 kts 26°
2026-05-06 05:11 41.98038 -1.31485 30020 ft 434 kts 26°
2026-05-06 05:11 42.03128 -1.27100 30017 ft 434 kts 27°
2026-05-06 05:12 42.08217 -1.22710 30006 ft 434 kts 26°
2026-05-06 05:12 42.13052 -1.17772 30006 ft 439 kts 34°
2026-05-06 05:13 42.17767 -1.12536 29995 ft 439 kts 34°
2026-05-06 05:13 42.22486 -1.07293 30016 ft 440 kts 34°
2026-05-06 05:14 42.27186 -1.02060 29999 ft 441 kts 34°
2026-05-06 05:14 42.31910 -0.96791 29995 ft 441 kts 34°
2026-05-06 05:15 42.36645 -0.91497 29990 ft 441 kts 34°
2026-05-06 05:15 42.41368 -0.86213 30026 ft 441 kts 35°
2026-05-06 05:16 42.45504 -0.79962 30007 ft 449 kts 49°
2026-05-06 05:16 42.49311 -0.73243 29987 ft 450 kts 49°
2026-05-06 05:17 42.53134 -0.66510 29982 ft 450 kts 49°
2026-05-06 05:17 42.56952 -0.59781 29973 ft 451 kts 49°
2026-05-06 05:18 42.60753 -0.53059 29980 ft 451 kts 49°
2026-05-06 05:18 42.64564 -0.46294 30016 ft 451 kts 49°
2026-05-06 05:19 42.68366 -0.39536 30009 ft 449 kts 49°
2026-05-06 05:19 42.72156 -0.32790 29995 ft 448 kts 49°
2026-05-06 05:20 42.75934 -0.26048 29989 ft 448 kts 49°
2026-05-06 05:20 42.79707 -0.19294 29983 ft 448 kts 49°
2026-05-06 05:21 42.83579 -0.12664 29983 ft 447 kts 46°
2026-05-06 05:21 42.87561 -0.06174 29974 ft 446 kts 46°
2026-05-06 05:22 42.91521 0.00314 29966 ft 446 kts 46°
2026-05-06 05:22 42.95438 0.06849 29954 ft 447 kts 46°
2026-05-06 05:23 42.99365 0.13453 29957 ft 448 kts 47°
2026-05-06 05:23 43.05256 0.23355 30006 ft 446 kts 47°
2026-05-06 05:24 43.09161 0.29917 30004 ft 444 kts 47°
2026-05-06 05:24 43.13032 0.36451 29998 ft 442 kts 47°
2026-05-06 05:25 43.16904 0.43019 29977 ft 443 kts 47°
2026-05-06 05:25 43.20784 0.49591 29956 ft 444 kts 47°
2026-05-06 05:26 43.24663 0.56176 29995 ft 444 kts 48°
2026-05-06 05:26 43.28528 0.62760 29990 ft 442 kts 48°
2026-05-06 05:27 43.32380 0.69319 29994 ft 441 kts 48°
2026-05-06 05:27 43.36216 0.75876 29980 ft 440 kts 48°
2026-05-06 05:28 43.40051 0.82447 29947 ft 442 kts 48°
2026-05-06 05:28 43.43867 0.89010 29989 ft 442 kts 48°
2026-05-06 05:29 43.47692 0.95605 29999 ft 439 kts 48°
2026-05-06 05:29 43.51491 1.02162 29988 ft 436 kts 48°
2026-05-06 05:30 43.55260 1.08678 29986 ft 435 kts 48°
2026-05-06 05:30 43.59022 1.15195 29975 ft 434 kts 48°
2026-05-06 05:31 43.62780 1.21726 29980 ft 435 kts 49°
2026-05-06 05:31 43.66533 1.28266 29999 ft 433 kts 49°
2026-05-06 05:32 43.70225 1.34815 29999 ft 431 kts 50°
2026-05-06 05:32 43.73778 1.41491 29993 ft 431 kts 51°
2026-05-06 05:33 43.77273 1.48148 29983 ft 430 kts 51°
2026-05-06 05:33 43.80801 1.54821 29966 ft 430 kts 51°
2026-05-06 05:34 43.84351 1.61500 29967 ft 430 kts 51°
2026-05-06 05:34 43.87894 1.68176 29958 ft 430 kts 51°
2026-05-06 05:35 43.91424 1.74847 29951 ft 429 kts 51°
2026-05-06 05:35 43.94953 1.81534 29948 ft 429 kts 51°
2026-05-06 05:36 43.98419 1.88291 29941 ft 430 kts 53°
2026-05-06 05:36 44.01785 1.95098 29946 ft 430 kts 54°
2026-05-06 05:37 44.05182 2.01993 29937 ft 430 kts 54°
2026-05-06 05:37 44.08551 2.08797 29932 ft 430 kts 54°
2026-05-06 05:38 44.11937 2.15642 29927 ft 429 kts 54°
2026-05-06 05:38 44.15326 2.22498 29925 ft 429 kts 54°
2026-05-06 05:39 44.18711 2.29357 29908 ft 429 kts 54°
2026-05-06 05:39 44.22094 2.36225 29924 ft 430 kts 54°
2026-05-06 05:40 44.25459 2.43094 29925 ft 429 kts 55°
2026-05-06 05:40 44.28822 2.49974 29920 ft 429 kts 55°
2026-05-06 05:41 44.32179 2.56849 29941 ft 429 kts 55°
2026-05-06 05:41 44.35541 2.63748 29938 ft 429 kts 55°
2026-05-06 05:42 44.38885 2.70643 29911 ft 429 kts 56°
2026-05-06 05:42 44.42231 2.77542 29933 ft 429 kts 56°
2026-05-06 05:43 44.45574 2.84447 29939 ft 428 kts 56°
2026-05-06 05:43 44.48907 2.91354 29924 ft 428 kts 56°
2026-05-06 05:44 44.52210 2.98210 29912 ft 428 kts 56°
2026-05-06 05:44 44.55532 3.05136 29911 ft 427 kts 56°
2026-05-06 05:45 44.58845 3.12068 29903 ft 427 kts 57°
2026-05-06 05:45 44.62086 3.19040 29926 ft 426 kts 59°
2026-05-06 05:46 44.65016 3.26252 29924 ft 424 kts 62°
2026-05-06 05:46 44.67825 3.33544 29925 ft 424 kts 62°
2026-05-06 05:47 44.70669 3.40793 29923 ft 423 kts 62°
2026-05-06 05:47 44.73557 3.48017 29904 ft 423 kts 62°
2026-05-06 05:48 44.76445 3.55249 29890 ft 423 kts 62°
2026-05-06 05:48 44.79305 3.62430 29886 ft 423 kts 62°
2026-05-06 05:49 44.82169 3.69663 29886 ft 423 kts 62°
2026-05-06 05:49 44.85025 3.76904 29886 ft 423 kts 62°
2026-05-06 05:50 44.87882 3.84150 29869 ft 423 kts 62°
2026-05-06 05:50 44.90738 3.91438 29868 ft 425 kts 63°
2026-05-06 05:51 44.93112 3.97503 29881 ft 425 kts 63°
2026-05-06 05:51 44.95966 4.04789 29899 ft 423 kts 63°
2026-05-06 05:52 44.98797 4.12062 29908 ft 422 kts 63°
2026-05-06 05:52 45.01609 4.19328 29897 ft 421 kts 63°
2026-05-06 05:53 45.04428 4.26602 29865 ft 421 kts 63°
2026-05-06 05:53 45.07254 4.33877 29862 ft 423 kts 63°
2026-05-06 05:54 45.10078 4.41191 29851 ft 424 kts 64°
2026-05-06 05:54 45.12894 4.48515 29883 ft 423 kts 64°
2026-05-06 05:55 45.15696 4.55821 29885 ft 421 kts 64°
2026-05-06 05:55 45.18483 4.63125 29845 ft 421 kts 64°
2026-05-06 05:56 45.21251 4.70391 29843 ft 422 kts 64°
2026-05-06 05:56 45.24044 4.77716 29846 ft 423 kts 64°
2026-05-06 05:57 45.26846 4.85073 29851 ft 424 kts 64°
2026-05-06 05:57 45.29689 4.92601 29509 ft 446 kts 64°
2026-05-06 05:58 45.31158 4.96507 29213 ft 449 kts 64°
2026-05-06 05:58 45.32630 5.00412 28929 ft 447 kts 64°
2026-05-06 05:58 45.34099 5.04297 28612 ft 446 kts 64°
2026-05-06 05:58 45.35572 5.08201 28323 ft 448 kts 64°
2026-05-06 05:59 45.37038 5.12090 27740 ft 444 kts 64°
2026-05-06 05:59 45.38484 5.15933 27173 ft 439 kts 64°
2026-05-06 05:59 45.39916 5.19745 26607 ft 434 kts 64°
2026-05-06 05:59 45.41328 5.23514 26056 ft 428 kts 64°
2026-05-06 06:00 45.42719 5.27237 25508 ft 424 kts 64°
2026-05-06 06:00 45.44074 5.30883 24999 ft 419 kts 64°
2026-05-06 06:00 45.45424 5.34533 24474 ft 415 kts 64°
2026-05-06 06:00 45.46762 5.38140 23985 ft 410 kts 63°
2026-05-06 06:01 45.48324 5.41520 23501 ft 407 kts 53°
2026-05-06 06:01 45.50257 5.44443 22982 ft 404 kts 43°
2026-05-06 06:01 45.52487 5.46841 22526 ft 401 kts 34°
2026-05-06 06:01 45.54877 5.48834 22081 ft 396 kts 32°
2026-05-06 06:02 45.57253 5.50803 21631 ft 392 kts 32°
2026-05-06 06:02 45.59593 5.52751 21177 ft 389 kts 32°
2026-05-06 06:02 45.61920 5.54696 20711 ft 385 kts 32°
2026-05-06 06:02 45.64222 5.56621 20247 ft 382 kts 32°
2026-05-06 06:03 45.66507 5.58527 19794 ft 379 kts 32°
2026-05-06 06:03 45.68778 5.60407 19323 ft 377 kts 31°
2026-05-06 06:03 45.71059 5.62238 18856 ft 375 kts 30°
2026-05-06 06:03 45.73343 5.64031 18369 ft 373 kts 29°
2026-05-06 06:04 45.75621 5.65799 17878 ft 372 kts 29°
2026-05-06 06:04 45.77900 5.67570 17645 ft 376 kts 29°
2026-05-06 06:04 45.80176 5.69352 17529 ft 379 kts 29°
2026-05-06 06:04 45.82481 5.71171 17358 ft 379 kts 29°
2026-05-06 06:05 45.84787 5.72998 17189 ft 378 kts 30°
2026-05-06 06:05 45.87021 5.74964 17021 ft 376 kts 38°
2026-05-06 06:05 45.88961 5.77459 16845 ft 373 kts 49°
2026-05-06 06:05 45.90553 5.80371 16683 ft 371 kts 56°
2026-05-06 06:06 45.92057 5.83364 16508 ft 370 kts 56°
2026-05-06 06:06 45.93568 5.86346 16362 ft 369 kts 56°
2026-05-06 06:06 45.95093 5.89317 16167 ft 369 kts 53°
2026-05-06 06:06 45.96841 5.91999 16018 ft 369 kts 46°
2026-05-06 06:07 45.98664 5.94589 15839 ft 369 kts 46°
2026-05-06 06:07 46.00502 5.97219 15683 ft 372 kts 46°
2026-05-06 06:07 46.02328 5.99845 15517 ft 370 kts 46°
2026-05-06 06:07 46.04109 6.02415 15348 ft 366 kts 47°
2026-05-06 06:08 46.05900 6.05007 15185 ft 364 kts 47°
2026-05-06 06:08 46.07686 6.07592 15024 ft 364 kts 47°
2026-05-06 06:08 46.09493 6.10209 14860 ft 363 kts 47°
2026-05-06 06:08 46.11244 6.12757 14417 ft 363 kts 47°
2026-05-06 06:09 46.13002 6.15347 13961 ft 360 kts 47°
2026-05-06 06:09 46.14738 6.17928 13503 ft 356 kts 48°
2026-05-06 06:09 46.16455 6.20495 13051 ft 354 kts 48°
2026-05-06 06:09 46.18154 6.23033 12607 ft 351 kts 48°
2026-05-06 06:10 46.19846 6.25557 12224 ft 346 kts 47°
2026-05-06 06:10 46.21491 6.27993 12094 ft 332 kts 47°
2026-05-06 06:10 46.23088 6.30336 11958 ft 321 kts 47°
2026-05-06 06:10 46.24628 6.32587 11796 ft 311 kts 47°
2026-05-06 06:11 46.26137 6.34798 11492 ft 307 kts 47°
2026-05-06 06:11 46.27611 6.36957 11149 ft 305 kts 47°
2026-05-06 06:11 46.29116 6.39169 10881 ft 303 kts 48°
2026-05-06 06:11 46.30584 6.41330 10596 ft 301 kts 46°
2026-05-06 06:12 46.32046 6.43490 10358 ft 298 kts 47°
2026-05-06 06:12 46.33471 6.45604 10088 ft 296 kts 47°
2026-05-06 06:12 46.34904 6.47733 9840 ft 294 kts 47°
2026-05-06 06:12 46.36332 6.49844 9561 ft 293 kts 47°
2026-05-06 06:13 46.37773 6.51984 9246 ft 291 kts 47°
2026-05-06 06:13 46.39170 6.54073 8978 ft 288 kts 47°
2026-05-06 06:13 46.40586 6.56098 8706 ft 286 kts 39°
2026-05-06 06:13 46.42331 6.57335 8448 ft 283 kts 12°
2026-05-06 06:14 46.44262 6.57321 8193 ft 279 kts 344°
2026-05-06 06:14 46.45947 6.56044 7927 ft 272 kts 318°
2026-05-06 06:14 46.47296 6.54161 7677 ft 267 kts 308°
2026-05-06 06:14 46.48084 6.51799 7490 ft 258 kts 280°
2026-05-06 06:15 46.48172 6.49246 7339 ft 251 kts 261°
2026-05-06 06:15 46.47701 6.46856 7184 ft 244 kts 243°
2026-05-06 06:15 46.46771 6.44850 7061 ft 237 kts 226°
2026-05-06 06:15 46.45639 6.43174 6981 ft 229 kts 225°
2026-05-06 06:16 46.44541 6.41537 6815 ft 224 kts 225°
2026-05-06 06:16 46.43462 6.39930 6544 ft 222 kts 225°
2026-05-06 06:16 46.42402 6.38357 6279 ft 220 kts 225°
2026-05-06 06:16 46.41330 6.36766 5977 ft 221 kts 226°
2026-05-06 06:17 46.40258 6.35175 5682 ft 219 kts 225°
2026-05-06 06:17 46.39211 6.33625 5391 ft 211 kts 225°
2026-05-06 06:17 46.38205 6.32135 5113 ft 203 kts 225°
2026-05-06 06:17 46.37236 6.30701 4870 ft 195 kts 225°
2026-05-06 06:18 46.36299 6.29313 4601 ft 191 kts 225°
2026-05-06 06:18 46.35382 6.27957 4332 ft 186 kts 225°
2026-05-06 06:18 46.34485 6.26631 4071 ft 182 kts 225°
2026-05-06 06:18 46.33606 6.25333 3839 ft 181 kts 225°
2026-05-06 06:19 46.32728 6.24037 3599 ft 179 kts 225°
2026-05-06 06:19 46.31868 6.22767 3363 ft 174 kts 225°
2026-05-06 06:19 46.31037 6.21541 3130 ft 168 kts 224°
2026-05-06 06:19 46.30232 6.20354 2905 ft 162 kts 225°
2026-05-06 06:20 46.29449 6.19200 2680 ft 160 kts 225°
2026-05-06 06:20 46.28680 6.18067 2466 ft 152 kts 225°
2026-05-06 06:20 46.27979 6.17035 2249 ft 137 kts 225°
2026-05-06 06:20 46.27327 6.16075 2069 ft 132 kts 225°
2026-05-06 06:21 46.26687 6.15132 1895 ft 130 kts 225°
2026-05-06 06:21 46.26056 6.14217 1726 ft 127 kts 226°
2026-05-06 06:21 46.25442 6.13303 1539 ft 127 kts 226°
2026-05-06 06:21 46.24826 6.12394 1385 ft 124 kts 226°
2026-05-06 06:22 46.24313 6.11637 1373 ft 83 kts 225°
2026-05-06 06:22 46.23974 6.11144 1377 ft 57 kts 226°
2026-05-06 06:22 46.23753 6.10836 1383 ft 38 kts 216°
2026-05-06 06:22 46.23553 6.10709 1385 ft 22 kts 196°
2026-05-06 06:23 46.23453 6.10667 1390 ft 10 kts 195°
2026-05-06 06:23 46.23413 6.10645 1397 ft 4 kts 205°
2026-05-06 06:23 46.23389 6.10624 1397 ft 4 kts 214°
2026-05-06 06:23 46.23364 6.10611 1399 ft 5 kts 191°
2026-05-06 06:24 46.23315 6.10609 1393 ft 8 kts 180°
2026-05-06 06:24 46.23278 6.10608 1393 ft 2 kts 180°
2026-05-06 06:24 46.23276 6.10608 1393 ft 0 kts 180°